This is the latest recevied weather packets stored in our database for station/object KP3M-5. If no packets are shown the sender has not sent any weather packets the latest 10 day(s).
| Time | Temp. | Humidity | Pressure | Rain* | Wind** | Luminosity | Snow |
|---|---|---|---|---|---|---|---|
| 1788523504 | 24.44° C | 87% | 1024 hPa | - | - | - | - |
| 1788519906 | 22.22° C | 91% | 1024 hPa | - | - | - | - |
| 1788516306 | 21.67° C | 90% | 1024 hPa | - | - | - | - |
| 1788512705 | 21.67° C | 90% | 1024 hPa | - | - | - | - |
| 1788509104 | 21.11° C | 90% | 1024 hPa | - | - | - | - |
| 1788473104 | 27.78° C | 71% | 1024 hPa | - | - | - | - |
| 1788469504 | 28.89° C | 67% | 1024 hPa | - | - | - | - |
| 1788465904 | 29.44° C | 65% | 1024 hPa | - | - | - | - |
| 1788462304 | 29.44° C | 64% | 1024 hPa | - | - | - | - |
| 1788458704 | 29.44° C | 66% | 1024 hPa | - | - | - | - |
| 1788455104 | 28.89° C | 66% | 1024 hPa | - | - | - | - |
| 1788451504 | 28.89° C | 65% | 1024 hPa | - | - | - | - |
| 1788447903 | 28.33° C | 68% | 1024 hPa | - | - | - | - |
| 1788444304 | 27.78° C | 72% | 1024 hPa | - | - | - | - |
| 1788440704 | 26.11° C | 83% | 1024 hPa | - | - | - | - |
| 1788437104 | 25.56° C | 85% | 1024 hPa | - | - | - | - |
| 1788433506 | 22.78° C | 92% | 1024 hPa | - | - | - | - |
| 1788429904 | 22.22° C | 90% | 1024 hPa | - | - | - | - |
| 1788426303 | 22.22° C | 89% | 1024 hPa | - | - | - | - |
| 1788422704 | 22.22° C | 90% | 1024 hPa | - | - | - | - |
| 1788386704 | 25° C | 82% | 1024 hPa | - | - | - | - |
| 1788383104 | 26.67° C | 80% | 1024 hPa | - | - | - | - |
| 1788379504 | 27.78° C | 73% | 1024 hPa | - | - | - | - |
| 1788375903 | 28.33° C | 71% | 1024 hPa | - | - | - | - |
| 1788372305 | 27.78° C | 75% | 1024 hPa | - | - | - | - |
* Rain since midnight (hover to see other rain measurements)
** Current wind speed in m/s (hover to see current wind gust speed)